Time,TemperatureF,DewpointF,PressureIn,WindDirection,WindDirectionDegrees,WindSpeedMPH,WindSpeedGustMPH,Humidity,HourlyPrecipIn,Conditions,Clouds,dailyrainin,SoftwareType,DateUTC
2013-05-19 00:01:00,58.4,53.6,30.01,NE,35,0.0,0.0,84,0.00,,CLR,0.00,VWS V13.01,2013-05-19 04:01:00,
2013-05-19 00:06:00,58.4,53.9,30.01,NE,35,0.0,0.0,85,0.00,,CLR,0.00,VWS V13.01,2013-05-19 04:06:00,
2013-05-19 00:11:00,58.4,53.9,30.00,NE,35,0.0,0.0,85,0.00,,CLR,0.00,VWS V13.01,2013-05-19 04:11:00,
2013-05-19 00:16:00,59.0,55.1,30.00,NE,35,0.0,2.0,87,0.00,,CLR,0.00,VWS V13.01,2013-05-19 04:16:00,
2013-05-19 00:21:00,59.5,56.0,30.00,NE,35,0.0,2.0,88,0.00,,CLR,0.00,VWS V13.01,2013-05-19 04:21:00,
2013-05-19 00:26:00,60.6,57.3,30.00,SSE,150,1.0,5.0,89,0.00,,CLR,0.00,VWS V13.01,2013-05-19 04:26:00,
2013-05-19 00:31:00,62.1,58.2,30.00,ESE,104,0.0,3.0,87,0.00,,CLR,0.00,VWS V13.01,2013-05-19 04:31:00,
2013-05-19 00:36:00,63.2,59.0,30.00,SE,134,0.0,15.0,86,0.00,,CLR,0.00,VWS V13.01,2013-05-19 04:36:00,
2013-05-19 00:41:00,63.8,58.9,30.00,ENE,78,1.0,15.0,84,0.00,,CLR,0.00,VWS V13.01,2013-05-19 04:41:00,
2013-05-19 00:46:00,64.2,58.9,30.00,SSE,148,0.0,15.0,83,0.00,,CLR,0.00,VWS V13.01,2013-05-19 04:46:00,
2013-05-19 00:51:00,64.3,59.0,30.00,SSE,159,3.0,15.0,83,0.00,,CLR,0.00,VWS V13.01,2013-05-19 04:51:00,
2013-05-19 00:56:00,64.3,58.7,30.00,ESE,119,2.0,15.0,82,0.00,,CLR,0.00,VWS V13.01,2013-05-19 04:56:00,
2013-05-19 01:01:00,64.3,58.7,29.99,SSE,167,3.0,3.0,82,0.00,,CLR,0.00,VWS V13.01,2013-05-19 05:01:00,
2013-05-19 01:07:00,64.3,59.0,29.99,SSE,164,1.0,9.0,83,0.00,,CLR,0.00,VWS V13.01,2013-05-19 05:07:00,
2013-05-19 01:12:00,64.3,59.0,29.99,SE,130,0.0,9.0,83,0.00,,CLR,0.00,VWS V13.01,2013-05-19 05:12:00,
2013-05-19 01:17:00,64.3,59.0,29.99,SSE,153,1.0,9.0,83,0.00,,CLR,0.00,VWS V13.01,2013-05-19 05:17:00,
2013-05-19 01:22:00,64.2,58.9,29.99,SSE,163,4.0,9.0,83,0.00,,CLR,0.00,VWS V13.01,2013-05-19 05:22:00,
2013-05-19 01:27:00,64.1,58.8,29.99,SSE,167,0.0,10.0,83,0.00,,CLR,0.00,VWS V13.01,2013-05-19 05:27:00,
2013-05-19 01:32:00,63.9,58.6,29.99,SSE,156,3.0,5.0,83,0.00,,CLR,0.00,VWS V13.01,2013-05-19 05:32:00,
2013-05-19 01:37:00,63.9,58.6,29.99,SE,133,5.0,12.0,83,0.00,,CLR,0.00,VWS V13.01,2013-05-19 05:37:00,
2013-05-19 01:42:00,63.9,58.6,29.99,South,184,1.0,12.0,83,0.00,,CLR,0.00,VWS V13.01,2013-05-19 05:42:00,
2013-05-19 01:47:00,63.8,58.5,29.99,South,175,2.0,12.0,83,0.00,,CLR,0.00,VWS V13.01,2013-05-19 05:47:00,
2013-05-19 01:52:00,63.8,58.5,29.99,South,171,4.0,12.0,83,0.00,,CLR,0.00,VWS V13.01,2013-05-19 05:52:00,
2013-05-19 01:57:00,63.6,58.3,29.99,SE,136,0.0,12.0,83,0.00,,CLR,0.00,VWS V13.01,2013-05-19 05:57:00,
2013-05-19 02:02:00,63.5,58.2,29.99,ESE,123,10.0,10.0,83,0.00,,CLR,0.00,VWS V13.01,2013-05-19 06:02:00,
2013-05-19 02:07:00,63.4,58.5,29.99,SSE,155,1.0,10.0,84,0.00,,CLR,0.00,VWS V13.01,2013-05-19 06:07:00,
2013-05-19 02:12:00,63.3,58.4,29.98,SSE,151,1.0,10.0,84,0.00,,CLR,0.00,VWS V13.01,2013-05-19 06:12:00,
2013-05-19 02:17:00,63.1,58.2,29.98,South,182,1.0,10.0,84,0.00,,CLR,0.00,VWS V13.01,2013-05-19 06:17:00,
2013-05-19 02:22:00,63.1,58.2,29.99,SSE,153,1.0,10.0,84,0.00,,CLR,0.00,VWS V13.01,2013-05-19 06:22:00,
2013-05-19 02:27:00,62.9,58.0,29.98,South,172,1.0,10.0,84,0.00,,CLR,0.00,VWS V13.01,2013-05-19 06:27:00,
2013-05-19 02:32:00,62.8,58.2,29.99,SSE,167,3.0,5.0,85,0.00,,CLR,0.00,VWS V13.01,2013-05-19 06:32:00,
2013-05-19 02:37:00,62.7,58.1,29.99,SSE,153,0.0,5.0,85,0.00,,CLR,0.00,VWS V13.01,2013-05-19 06:37:00,
2013-05-19 02:42:00,62.5,57.9,29.99,SSE,165,1.0,7.0,85,0.00,,CLR,0.00,VWS V13.01,2013-05-19 06:42:00,
2013-05-19 02:47:00,62.5,57.9,29.99,SSW,194,4.0,7.0,85,0.00,,CLR,0.00,VWS V13.01,2013-05-19 06:47:00,
2013-05-19 02:52:00,62.4,57.8,29.99,SSE,163,2.0,9.0,85,0.00,,CLR,0.00,VWS V13.01,2013-05-19 06:52:00,
2013-05-19 02:57:00,62.3,58.1,29.99,SE,141,2.0,9.0,86,0.00,,CLR,0.00,VWS V13.01,2013-05-19 06:57:00,
2013-05-19 03:02:00,62.2,58.0,29.98,SE,138,0.0,6.0,86,0.00,,CLR,0.00,VWS V13.01,2013-05-19 07:02:00,
2013-05-19 03:07:00,62.1,57.9,29.98,SE,137,1.0,11.0,86,0.00,,CLR,0.00,VWS V13.01,2013-05-19 07:07:00,
2013-05-19 03:12:00,62.0,57.8,29.98,SSE,155,3.0,11.0,86,0.00,,CLR,0.00,VWS V13.01,2013-05-19 07:12:00,
2013-05-19 03:17:00,62.0,57.8,29.98,South,178,0.0,11.0,86,0.00,,CLR,0.00,VWS V13.01,2013-05-19 07:17:00,
2013-05-19 03:22:00,61.9,58.0,29.98,SE,141,1.0,11.0,87,0.00,,CLR,0.00,VWS V13.01,2013-05-19 07:22:00,
2013-05-19 03:27:00,61.8,57.9,29.98,SSE,154,0.0,11.0,87,0.00,,CLR,0.00,VWS V13.01,2013-05-19 07:27:00,
2013-05-19 03:32:00,61.8,57.9,29.98,South,180,0.0,4.0,87,0.00,,CLR,0.00,VWS V13.01,2013-05-19 07:32:00,
2013-05-19 03:37:00,61.7,57.8,29.98,SSW,194,0.0,13.0,87,0.00,,CLR,0.00,VWS V13.01,2013-05-19 07:37:00,
2013-05-19 03:42:00,61.7,57.8,29.97,South,172,3.0,13.0,87,0.00,,CLR,0.00,VWS V13.01,2013-05-19 07:42:00,
2013-05-19 03:47:00,61.7,57.8,29.98,South,171,0.0,13.0,87,0.00,,CLR,0.00,VWS V13.01,2013-05-19 07:47:00,
2013-05-19 03:52:00,61.6,57.7,29.97,SE,142,0.0,13.0,87,0.00,,CLR,0.00,VWS V13.01,2013-05-19 07:52:00,
2013-05-19 03:57:00,61.6,58.0,29.98,SE,146,4.0,13.0,88,0.00,,CLR,0.00,VWS V13.01,2013-05-19 07:57:00,
2013-05-19 04:02:00,61.6,58.0,29.98,ESE,123,0.0,2.0,88,0.00,,CLR,0.00,VWS V13.01,2013-05-19 08:02:00,
2013-05-19 04:07:00,61.5,57.9,29.98,ESE,116,2.0,7.0,88,0.00,,CLR,0.00,VWS V13.01,2013-05-19 08:07:00,
2013-05-19 04:12:00,61.4,57.8,29.98,South,173,3.0,13.0,88,0.00,,CLR,0.00,VWS V13.01,2013-05-19 08:12:00,
2013-05-19 04:17:00,61.4,57.8,29.98,SSE,166,1.0,13.0,88,0.00,,CLR,0.00,VWS V13.01,2013-05-19 08:17:00,
2013-05-19 04:22:00,61.4,57.8,29.98,SSE,151,2.0,13.0,88,0.00,,CLR,0.00,VWS V13.01,2013-05-19 08:22:00,
2013-05-19 04:27:00,61.4,57.8,29.98,South,180,2.0,14.0,88,0.00,,CLR,0.00,VWS V13.01,2013-05-19 08:27:00,
2013-05-19 04:32:00,61.4,57.8,29.98,SSE,158,2.0,6.0,88,0.00,,CLR,0.00,VWS V13.01,2013-05-19 08:32:00,
2013-05-19 04:37:00,61.4,57.8,29.98,SSE,150,2.0,8.0,88,0.00,,CLR,0.00,VWS V13.01,2013-05-19 08:37:00,
2013-05-19 04:42:00,61.4,57.8,29.98,SSE,152,0.0,8.0,88,0.00,,CLR,0.00,VWS V13.01,2013-05-19 08:42:00,
2013-05-19 04:47:00,61.4,57.8,29.98,SSE,168,0.0,12.0,88,0.00,,CLR,0.00,VWS V13.01,2013-05-19 08:47:00,
2013-05-19 04:52:00,61.4,57.8,29.98,South,175,0.0,12.0,88,0.00,,CLR,0.00,VWS V13.01,2013-05-19 08:52:00,
2013-05-19 04:57:00,61.4,57.8,29.98,SSE,152,1.0,12.0,88,0.00,,CLR,0.00,VWS V13.01,2013-05-19 08:57:00,
2013-05-19 05:02:00,61.4,57.8,29.98,SE,137,1.0,6.0,88,0.00,,FEW080,0.00,VWS V13.01,2013-05-19 09:02:00,
2013-05-19 05:07:00,61.4,57.8,29.98,SE,142,1.0,6.0,88,0.00,,FEW080,0.00,VWS V13.01,2013-05-19 09:07:00,
2013-05-19 05:12:00,61.4,58.1,29.98,South,173,1.0,9.0,89,0.00,,FEW080,0.00,VWS V13.01,2013-05-19 09:12:00,
2013-05-19 05:17:00,61.4,58.1,29.98,SE,143,2.0,9.0,89,0.00,,FEW080,0.00,VWS V13.01,2013-05-19 09:17:00,
2013-05-19 05:22:00,61.4,58.1,29.99,SSE,155,4.0,9.0,89,0.00,,FEW080,0.00,VWS V13.01,2013-05-19 09:22:00,
2013-05-19 05:27:00,61.4,58.1,29.99,SSE,151,3.0,11.0,89,0.00,,FEW080,0.00,VWS V13.01,2013-05-19 09:27:00,
2013-05-19 05:32:00,61.4,58.1,29.99,SSE,158,1.0,10.0,89,0.00,,FEW080,0.00,VWS V13.01,2013-05-19 09:32:00,
2013-05-19 05:37:00,61.5,58.2,29.99,SSE,161,4.0,10.0,89,0.00,,FEW080,0.00,VWS V13.01,2013-05-19 09:37:00,
2013-05-19 05:43:00,61.6,58.3,29.99,SSE,150,1.0,10.0,89,0.00,,FEW080,0.00,VWS V13.01,2013-05-19 09:43:00,
2013-05-19 05:48:00,61.7,58.4,29.99,SSE,168,3.0,11.0,89,0.00,,FEW080,0.00,VWS V13.01,2013-05-19 09:48:00,
2013-05-19 05:53:00,61.8,58.5,29.99,SSE,150,0.0,11.0,89,0.00,,FEW080,0.00,VWS V13.01,2013-05-19 09:53:00,
2013-05-19 05:58:00,61.8,58.2,29.99,SSE,153,1.0,11.0,88,0.00,,FEW080,0.00,VWS V13.01,2013-05-19 09:58:00,
2013-05-19 06:03:00,61.8,58.2,29.99,SE,137,1.0,9.0,88,0.00,,OVC080,0.00,VWS V13.01,2013-05-19 10:03:00,
2013-05-19 06:08:00,61.9,58.3,29.99,SE,128,0.0,10.0,88,0.00,,OVC080,0.00,VWS V13.01,2013-05-19 10:08:00,
2013-05-19 06:13:00,61.9,58.3,29.99,SSE,164,0.0,10.0,88,0.00,,OVC080,0.00,VWS V13.01,2013-05-19 10:13:00,
2013-05-19 06:18:00,61.8,58.2,29.99,ESE,121,0.0,10.0,88,0.00,,OVC080,0.00,VWS V13.01,2013-05-19 10:18:00,
2013-05-19 06:23:00,61.8,58.5,29.99,SE,146,0.0,11.0,89,0.00,,OVC080,0.00,VWS V13.01,2013-05-19 10:23:00,
2013-05-19 06:28:00,61.8,58.5,29.99,South,175,0.0,11.0,89,0.00,,OVC080,0.00,VWS V13.01,2013-05-19 10:28:00,
2013-05-19 06:33:00,61.8,58.5,30.00,SE,142,1.0,4.0,89,0.00,,OVC080,0.00,VWS V13.01,2013-05-19 10:33:00,
2013-05-19 06:38:00,61.8,58.5,30.00,SE,142,0.0,4.0,89,0.00,,OVC080,0.00,VWS V13.01,2013-05-19 10:38:00,
2013-05-19 06:43:00,61.9,58.6,30.00,ESE,118,2.0,5.0,89,0.00,,OVC080,0.00,VWS V13.01,2013-05-19 10:43:00,
2013-05-19 06:48:00,61.9,58.6,30.01,SSE,148,0.0,5.0,89,0.00,,OVC080,0.00,VWS V13.01,2013-05-19 10:48:00,
2013-05-19 06:53:00,62.0,58.7,30.01,SSE,157,3.0,6.0,89,0.00,,OVC080,0.00,VWS V13.01,2013-05-19 10:53:00,
2013-05-19 06:58:00,62.0,58.7,30.01,SSE,150,2.0,6.0,89,0.00,,OVC080,0.00,VWS V13.01,2013-05-19 10:58:00,
2013-05-19 07:03:00,62.1,58.8,30.01,SSE,155,0.0,3.0,89,0.00,,CLR,0.00,VWS V13.01,2013-05-19 11:03:00,
2013-05-19 07:08:00,62.3,59.0,30.02,SSE,159,1.0,9.0,89,0.00,,CLR,0.00,VWS V13.01,2013-05-19 11:08:00,
2013-05-19 07:13:00,62.6,59.3,30.01,SE,144,1.0,9.0,89,0.00,,CLR,0.00,VWS V13.01,2013-05-19 11:13:00,
2013-05-19 07:18:00,62.9,59.6,30.01,SSE,162,2.0,9.0,89,0.00,,CLR,0.00,VWS V13.01,2013-05-19 11:18:00,
2013-05-19 07:23:00,63.1,59.5,30.01,SSE,153,0.0,9.0,88,0.00,,CLR,0.00,VWS V13.01,2013-05-19 11:23:00,
2013-05-19 07:28:00,63.4,59.8,30.01,ESE,113,3.0,9.0,88,0.00,,CLR,0.00,VWS V13.01,2013-05-19 11:28:00,
2013-05-19 07:33:00,63.6,59.7,30.01,South,178,2.0,5.0,87,0.00,,CLR,0.00,VWS V13.01,2013-05-19 11:33:00,
2013-05-19 07:38:00,63.8,59.9,30.01,South,169,0.0,7.0,87,0.00,,CLR,0.00,VWS V13.01,2013-05-19 11:38:00,
2013-05-19 07:43:00,64.0,60.1,30.01,SE,141,0.0,7.0,87,0.00,,CLR,0.00,VWS V13.01,2013-05-19 11:43:00,
2013-05-19 07:48:00,64.2,60.3,30.01,SE,133,0.0,7.0,87,0.00,,CLR,0.00,VWS V13.01,2013-05-19 11:48:00,
2013-05-19 07:53:00,64.4,60.1,30.01,SSE,148,2.0,7.0,86,0.00,,CLR,0.00,VWS V13.01,2013-05-19 11:53:00,
2013-05-19 07:58:00,64.7,60.4,30.01,SE,131,0.0,7.0,86,0.00,,CLR,0.00,VWS V13.01,2013-05-19 11:58:00,
2013-05-19 08:03:00,64.9,60.3,30.02,SSE,148,1.0,4.0,85,0.00,,CLR,0.00,VWS V13.01,2013-05-19 12:03:00,
2013-05-19 08:08:00,65.0,60.4,30.02,South,186,0.0,4.0,85,0.00,,CLR,0.00,VWS V13.01,2013-05-19 12:08:00,
2013-05-19 08:13:00,65.0,60.4,30.02,SSE,162,1.0,5.0,85,0.00,,CLR,0.00,VWS V13.01,2013-05-19 12:13:00,
2013-05-19 08:18:00,65.0,60.4,30.02,ESE,123,0.0,5.0,85,0.00,,CLR,0.00,VWS V13.01,2013-05-19 12:18:00,
2013-05-19 08:23:00,65.1,60.5,30.02,SE,128,0.0,5.0,85,0.00,,CLR,0.00,VWS V13.01,2013-05-19 12:23:00,
2013-05-19 08:28:00,65.2,60.6,30.02,East,91,1.0,5.0,85,0.00,,CLR,0.00,VWS V13.01,2013-05-19 12:28:00,
2013-05-19 08:33:00,65.3,60.7,30.02,South,169,1.0,2.0,85,0.00,,CLR,0.00,VWS V13.01,2013-05-19 12:33:00,
2013-05-19 08:38:00,65.5,60.9,30.02,SE,132,0.0,3.0,85,0.00,,CLR,0.00,VWS V13.01,2013-05-19 12:38:00,
2013-05-19 08:43:00,65.7,60.7,30.02,ESE,115,0.0,5.0,84,0.00,,CLR,0.00,VWS V13.01,2013-05-19 12:43:00,
2013-05-19 08:48:00,65.9,60.9,30.02,ESE,118,0.0,5.0,84,0.00,,CLR,0.00,VWS V13.01,2013-05-19 12:48:00,
2013-05-19 08:53:00,66.1,61.1,30.02,ESE,119,0.0,7.0,84,0.00,,CLR,0.00,VWS V13.01,2013-05-19 12:53:00,
2013-05-19 08:58:00,66.2,61.2,30.02,SE,126,0.0,7.0,84,0.00,,CLR,0.00,VWS V13.01,2013-05-19 12:58:00,
2013-05-19 09:03:00,66.5,61.5,30.02,SSE,148,0.0,3.0,84,0.00,,CLR,0.00,VWS V13.01,2013-05-19 13:03:00,
2013-05-19 09:08:00,66.7,61.4,30.02,SE,134,1.0,5.0,83,0.00,,CLR,0.00,VWS V13.01,2013-05-19 13:08:00,
2013-05-19 09:13:00,66.9,61.6,30.02,SE,137,0.0,5.0,83,0.00,,CLR,0.00,VWS V13.01,2013-05-19 13:13:00,
2013-05-19 09:18:00,67.2,61.9,30.02,SSE,151,0.0,5.0,83,0.00,,CLR,0.00,VWS V13.01,2013-05-19 13:18:00,
2013-05-19 09:23:00,67.5,61.8,30.02,SE,130,0.0,5.0,82,0.00,,CLR,0.00,VWS V13.01,2013-05-19 13:23:00,
2013-05-19 09:28:00,67.7,62.0,30.02,South,186,0.0,5.0,82,0.00,,CLR,0.00,VWS V13.01,2013-05-19 13:28:00,
2013-05-19 09:33:00,68.1,62.1,30.01,SE,140,1.0,4.0,81,0.00,,CLR,0.00,VWS V13.01,2013-05-19 13:33:00,
2013-05-19 09:38:00,68.4,62.3,30.01,ESE,112,1.0,7.0,81,0.00,,CLR,0.00,VWS V13.01,2013-05-19 13:38:00,
2013-05-19 09:43:00,68.6,62.5,30.01,SSE,159,1.0,7.0,81,0.00,,CLR,0.00,VWS V13.01,2013-05-19 13:43:00,
2013-05-19 09:48:00,68.9,62.5,30.01,ESE,105,2.0,7.0,80,0.00,,CLR,0.00,VWS V13.01,2013-05-19 13:48:00,
2013-05-19 09:53:00,69.2,62.8,30.00,SSW,213,1.0,7.0,80,0.00,,CLR,0.00,VWS V13.01,2013-05-19 13:53:00,
2013-05-19 09:58:00,69.8,63.4,30.00,SSW,211,1.0,7.0,80,0.00,,CLR,0.00,VWS V13.01,2013-05-19 13:58:00,
2013-05-19 10:04:00,70.6,63.8,30.00,SSE,147,0.0,3.0,79,0.00,,CLR,0.00,VWS V13.01,2013-05-19 14:04:00,
2013-05-19 10:08:00,71.3,64.1,30.00,SE,124,0.0,6.0,78,0.00,,CLR,0.00,VWS V13.01,2013-05-19 14:08:00,
2013-05-19 10:14:00,71.8,64.2,30.00,SSE,157,0.0,6.0,77,0.00,,CLR,0.00,VWS V13.01,2013-05-19 14:14:00,
2013-05-19 10:19:00,72.5,65.6,29.99,SSE,153,3.0,6.0,79,0.00,,CLR,0.00,VWS V13.01,2013-05-19 14:19:00,
2013-05-19 10:24:00,73.0,64.6,29.99,South,171,2.0,7.0,75,0.00,,CLR,0.00,VWS V13.01,2013-05-19 14:24:00,
2013-05-19 10:29:00,73.5,65.1,29.99,ESE,117,1.0,7.0,75,0.00,,CLR,0.00,VWS V13.01,2013-05-19 14:29:00,
2013-05-19 10:34:00,73.8,65.4,29.99,SE,138,0.0,2.0,75,0.00,,CLR,0.00,VWS V13.01,2013-05-19 14:34:00,
2013-05-19 10:39:00,74.3,66.2,29.99,SE,136,2.0,3.0,76,0.00,,CLR,0.00,VWS V13.01,2013-05-19 14:39:00,
2013-05-19 10:44:00,74.4,65.2,29.98,SSW,207,1.0,4.0,73,0.00,,CLR,0.00,VWS V13.01,2013-05-19 14:44:00,
2013-05-19 10:49:00,74.5,65.7,29.98,SSE,157,1.0,9.0,74,0.00,,CLR,0.00,VWS V13.01,2013-05-19 14:49:00,
2013-05-19 10:54:00,74.8,65.6,29.98,SSE,161,1.0,9.0,73,0.00,,CLR,0.00,VWS V13.01,2013-05-19 14:54:00,
2013-05-19 10:59:00,74.9,65.3,29.98,SE,144,1.0,9.0,72,0.00,,CLR,0.00,VWS V13.01,2013-05-19 14:59:00,
2013-05-19 12:26:00,77.9,66.1,29.96,ENE,65,0.0,5.0,67,0.00,,CLR,0.00,VWS V13.01,2013-05-19 16:26:00,
2013-05-19 12:31:00,78.3,67.3,29.96,SSE,158,1.0,2.0,69,0.00,,CLR,0.00,VWS V13.01,2013-05-19 16:31:00,
2013-05-19 12:36:00,78.3,66.4,29.96,South,181,2.0,7.0,67,0.00,,CLR,0.00,VWS V13.01,2013-05-19 16:36:00,
2013-05-19 12:41:00,78.7,67.3,29.96,SSE,152,2.0,7.0,68,0.00,,CLR,0.00,VWS V13.01,2013-05-19 16:41:00,
2013-05-19 12:46:00,79.0,67.1,29.95,SE,144,0.0,9.0,67,0.00,,CLR,0.00,VWS V13.01,2013-05-19 16:46:00,
2013-05-19 12:51:00,79.3,66.5,29.95,SSE,151,0.0,9.0,65,0.00,,CLR,0.00,VWS V13.01,2013-05-19 16:51:00,
2013-05-19 12:56:00,79.0,66.7,29.95,SSE,151,0.0,9.0,66,0.00,,CLR,0.00,VWS V13.01,2013-05-19 16:56:00,
2013-05-19 13:01:00,79.1,67.2,29.95,SSE,151,1.0,1.0,67,0.00,,BKN046,0.00,VWS V13.01,2013-05-19 17:01:00,
2013-05-19 13:06:00,79.3,67.0,29.95,South,179,3.0,3.0,66,0.00,,BKN046,0.00,VWS V13.01,2013-05-19 17:06:00,
2013-05-19 13:11:00,79.3,67.0,29.95,SE,143,0.0,3.0,66,0.00,,BKN046,0.00,VWS V13.01,2013-05-19 17:11:00,
2013-05-19 13:16:00,79.3,66.5,29.95,SSW,204,0.0,3.0,65,0.00,,BKN046,0.00,VWS V13.01,2013-05-19 17:16:00,
2013-05-19 13:21:00,79.0,66.2,29.94,SSE,157,2.0,7.0,65,0.00,,BKN046,0.00,VWS V13.01,2013-05-19 17:21:00,
2013-05-19 13:26:00,79.4,66.2,29.94,SSE,167,0.0,7.0,64,0.00,,BKN046,0.00,VWS V13.01,2013-05-19 17:26:00,
2013-05-19 13:31:00,79.6,66.8,29.94,SSE,161,0.0,3.0,65,0.00,,BKN046,0.00,VWS V13.01,2013-05-19 17:31:00,
2013-05-19 13:36:00,79.9,66.2,29.94,SSE,157,1.0,3.0,63,0.00,,BKN046,0.00,VWS V13.01,2013-05-19 17:36:00,
2013-05-19 13:41:00,79.9,65.3,29.94,SW,225,2.0,4.0,61,0.00,,BKN046,0.00,VWS V13.01,2013-05-19 17:41:00,
2013-05-19 13:46:00,79.8,66.6,29.93,SE,126,1.0,4.0,64,0.00,,BKN046,0.00,VWS V13.01,2013-05-19 17:46:00,
2013-05-19 13:51:00,80.0,66.3,29.93,East,88,1.0,6.0,63,0.00,,BKN046,0.00,VWS V13.01,2013-05-19 17:51:00,
2013-05-19 13:56:00,79.9,66.2,29.93,ESE,120,0.0,6.0,63,0.00,,BKN046,0.00,VWS V13.01,2013-05-19 17:56:00,
2013-05-19 14:01:00,80.2,66.9,29.93,SW,233,1.0,3.0,64,0.00,,BKN044,0.00,VWS V13.01,2013-05-19 18:01:00,
2013-05-19 14:06:00,80.3,66.1,29.93,SSE,167,3.0,6.0,62,0.00,,BKN044,0.00,VWS V13.01,2013-05-19 18:06:00,
2013-05-19 14:11:00,80.6,65.9,29.93,SSW,199,3.0,6.0,61,0.00,,BKN044,0.00,VWS V13.01,2013-05-19 18:11:00,
2013-05-19 14:16:00,80.5,66.8,29.93,SSW,200,0.0,6.0,63,0.00,,BKN044,0.00,VWS V13.01,2013-05-19 18:16:00,
2013-05-19 14:21:00,81.2,68.3,29.92,SW,227,1.0,6.0,65,0.00,,BKN044,0.00,VWS V13.01,2013-05-19 18:21:00,
2013-05-19 14:26:00,81.7,69.2,29.92,North,355,4.0,7.0,66,0.00,,BKN044,0.00,VWS V13.01,2013-05-19 18:26:00,
2013-05-19 14:31:00,81.4,69.0,29.92,WNW,288,0.0,3.0,66,0.00,,BKN044,0.00,VWS V13.01,2013-05-19 18:31:00,
2013-05-19 14:36:00,81.4,67.1,29.92,ESE,118,1.0,4.0,62,0.00,,BKN044,0.00,VWS V13.01,2013-05-19 18:36:00,
2013-05-19 14:41:00,80.9,65.7,29.91,SW,215,1.0,5.0,60,0.00,,BKN044,0.00,VWS V13.01,2013-05-19 18:41:00,
2013-05-19 14:46:00,80.6,66.8,29.91,SW,215,0.0,5.0,63,0.00,,BKN044,0.00,VWS V13.01,2013-05-19 18:46:00,
2013-05-19 14:51:00,80.4,66.7,29.91,ESE,104,0.0,5.0,63,0.00,,BKN044,0.00,VWS V13.01,2013-05-19 18:51:00,
2013-05-19 14:56:00,80.7,67.8,29.91,West,277,0.0,5.0,65,0.00,,BKN044,0.00,VWS V13.01,2013-05-19 18:56:00,
2013-05-19 15:01:00,80.3,67.9,29.91,West,272,0.0,4.0,66,0.00,,OVC060,0.00,VWS V13.01,2013-05-19 19:01:00,
2013-05-19 15:07:00,79.9,67.5,29.91,North,355,2.0,5.0,66,0.00,,OVC060,0.00,VWS V13.01,2013-05-19 19:07:00,
2013-05-19 15:12:00,79.7,66.9,29.91,North,355,1.0,6.0,65,0.00,,OVC060,0.00,VWS V13.01,2013-05-19 19:12:00,
2013-05-19 15:17:00,79.2,66.4,29.91,NW,322,1.0,6.0,65,0.00,,OVC060,0.00,VWS V13.01,2013-05-19 19:17:00,
2013-05-19 15:22:00,78.4,65.7,29.91,NNW,338,1.0,6.0,65,0.00,,OVC060,0.00,VWS V13.01,2013-05-19 19:22:00,
2013-05-19 15:27:00,78.3,67.3,29.91,North,350,0.0,6.0,69,0.00,,OVC060,0.00,VWS V13.01,2013-05-19 19:27:00,
2013-05-19 15:32:00,78.4,66.1,29.91,North,349,3.0,6.0,66,0.00,,OVC060,0.00,VWS V13.01,2013-05-19 19:32:00,
2013-05-19 15:37:00,77.8,66.4,29.91,WNW,296,0.0,6.0,68,0.00,,OVC060,0.00,VWS V13.01,2013-05-19 19:37:00,
2013-05-19 15:42:00,77.1,66.2,29.91,NW,305,0.0,6.0,69,0.00,,OVC060,0.00,VWS V13.01,2013-05-19 19:42:00,
2013-05-19 15:47:00,77.2,66.7,29.91,North,5,2.0,6.0,70,0.00,,OVC060,0.00,VWS V13.01,2013-05-19 19:47:00,
2013-05-19 15:52:00,77.5,66.5,29.90,NE,55,1.0,6.0,69,0.00,,OVC060,0.00,VWS V13.01,2013-05-19 19:52:00,
2013-05-19 15:57:00,77.7,66.3,29.91,West,273,4.0,6.0,68,0.00,,OVC060,0.00,VWS V13.01,2013-05-19 19:57:00,
2013-05-19 16:02:00,77.9,66.5,29.91,ENE,75,5.0,6.0,68,0.00,,BKN075,0.00,VWS V13.01,2013-05-19 20:02:00,
2013-05-19 16:07:00,77.7,66.3,29.91,NNW,347,0.0,6.0,68,0.00,,BKN075,0.00,VWS V13.01,2013-05-19 20:07:00,
2013-05-19 16:12:00,77.5,66.5,29.91,NW,311,0.0,6.0,69,0.00,,BKN075,0.00,VWS V13.01,2013-05-19 20:12:00,
2013-05-19 16:17:00,77.1,66.2,29.91,ESE,108,3.0,6.0,69,0.00,,BKN075,0.00,VWS V13.01,2013-05-19 20:17:00,
2013-05-19 16:22:00,76.9,66.0,29.91,NE,34,2.0,6.0,69,0.00,,BKN075,0.00,VWS V13.01,2013-05-19 20:22:00,
2013-05-19 16:27:00,76.8,65.9,29.91,North,360,3.0,6.0,69,0.00,,BKN075,0.00,VWS V13.01,2013-05-19 20:27:00,
2013-05-19 16:32:00,76.2,65.3,29.91,North,355,1.0,3.0,69,0.00,,BKN075,0.00,VWS V13.01,2013-05-19 20:32:00,
2013-05-19 16:37:00,75.8,65.3,29.92,North,355,1.0,6.0,70,0.00,,BKN075,0.00,VWS V13.01,2013-05-19 20:37:00,
2013-05-19 16:42:00,76.2,66.1,29.92,ENE,78,0.0,6.0,71,0.00,,BKN075,0.00,VWS V13.01,2013-05-19 20:42:00,
2013-05-19 16:47:00,76.8,65.4,29.92,North,360,3.0,7.0,68,0.00,,BKN075,0.00,VWS V13.01,2013-05-19 20:47:00,
2013-05-19 16:52:00,76.6,65.3,29.92,ENE,59,0.0,7.0,68,0.00,,BKN075,0.00,VWS V13.01,2013-05-19 20:52:00,
2013-05-19 16:57:00,76.0,65.1,29.92,ENE,61,1.0,7.0,69,0.00,,BKN075,0.00,VWS V13.01,2013-05-19 20:57:00,
2013-05-19 17:02:00,75.3,64.4,29.92,NNE,17,0.0,6.0,69,0.00,,BKN075,0.00,VWS V13.01,2013-05-19 21:02:00,
2013-05-19 17:07:00,75.3,64.8,29.92,ENE,64,1.0,6.0,70,0.00,,BKN075,0.00,VWS V13.01,2013-05-19 21:07:00,
2013-05-19 17:12:00,75.7,65.2,29.92,NNE,12,3.0,6.0,70,0.00,,BKN075,0.00,VWS V13.01,2013-05-19 21:12:00,
2013-05-19 17:17:00,75.8,64.9,29.92,South,182,0.0,6.0,69,0.00,,BKN075,0.00,VWS V13.01,2013-05-19 21:17:00,
2013-05-19 17:22:00,75.8,64.9,29.92,East,80,1.0,6.0,69,0.00,,BKN075,0.00,VWS V13.01,2013-05-19 21:22:00,
2013-05-19 17:27:00,75.7,64.8,29.92,NE,47,2.0,6.0,69,0.00,,BKN075,0.00,VWS V13.01,2013-05-19 21:27:00,
2013-05-19 17:32:00,75.6,64.7,29.92,NE,47,0.0,3.0,69,0.00,,BKN075,0.00,VWS V13.01,2013-05-19 21:32:00,
2013-05-19 17:37:00,75.4,64.9,29.92,ENE,76,2.0,4.0,70,0.00,,BKN075,0.00,VWS V13.01,2013-05-19 21:37:00,
2013-05-19 17:42:00,75.2,64.3,29.92,NE,40,1.0,4.0,69,0.00,,BKN075,0.00,VWS V13.01,2013-05-19 21:42:00,
2013-05-19 17:47:00,75.4,64.5,29.92,ENE,63,3.0,5.0,69,0.00,,BKN075,0.00,VWS V13.01,2013-05-19 21:47:00,
2013-05-19 17:52:00,75.9,64.6,29.92,NE,36,4.0,5.0,68,0.00,,BKN075,0.00,VWS V13.01,2013-05-19 21:52:00,
2013-05-19 17:57:00,76.1,64.8,29.91,WNW,290,1.0,5.0,68,0.00,,BKN075,0.00,VWS V13.01,2013-05-19 21:57:00,
2013-05-19 18:02:00,76.1,64.8,29.91,NE,49,0.0,2.0,68,0.00,,BKN075,0.00,VWS V13.01,2013-05-19 22:02:00,
2013-05-19 18:07:00,76.0,64.7,29.91,NE,51,0.0,4.0,68,0.00,,BKN075,0.00,VWS V13.01,2013-05-19 22:07:00,
2013-05-19 18:12:00,75.9,64.6,29.91,NE,51,2.0,4.0,68,0.00,,BKN075,0.00,VWS V13.01,2013-05-19 22:12:00,
2013-05-19 18:17:00,75.8,64.9,29.91,NE,51,1.0,4.0,69,0.00,,BKN075,0.00,VWS V13.01,2013-05-19 22:17:00,
2013-05-19 18:22:00,75.7,64.8,29.90,NE,51,0.0,4.0,69,0.00,,BKN075,0.00,VWS V13.01,2013-05-19 22:22:00,
2013-05-19 18:27:00,75.8,64.9,29.90,NE,51,1.0,4.0,69,0.00,,BKN075,0.00,VWS V13.01,2013-05-19 22:27:00,
2013-05-19 18:32:00,75.9,65.0,29.90,NE,51,0.0,3.0,69,0.00,,BKN075,0.00,VWS V13.01,2013-05-19 22:32:00,
2013-05-19 18:37:00,76.2,65.3,29.90,NE,51,2.0,4.0,69,0.00,,BKN075,0.00,VWS V13.01,2013-05-19 22:37:00,
2013-05-19 18:42:00,76.4,65.5,29.90,NE,51,0.0,4.0,69,0.00,,BKN075,0.00,VWS V13.01,2013-05-19 22:42:00,
2013-05-19 18:47:00,76.7,65.8,29.89,NE,51,1.0,4.0,69,0.00,,BKN075,0.00,VWS V13.01,2013-05-19 22:47:00,
2013-05-19 18:52:00,77.0,66.1,29.89,NE,51,0.0,4.0,69,0.00,,BKN075,0.00,VWS V13.01,2013-05-19 22:52:00,
2013-05-19 18:57:00,77.2,65.8,29.89,NE,51,0.0,4.0,68,0.00,,BKN075,0.00,VWS V13.01,2013-05-19 22:57:00,
2013-05-19 19:02:00,77.3,65.9,29.89,NE,51,0.0,2.0,68,0.00,,SCT060,0.00,VWS V13.01,2013-05-19 23:02:00,
2013-05-19 19:08:00,77.4,66.0,29.89,NE,51,0.0,3.0,68,0.00,,SCT060,0.00,VWS V13.01,2013-05-19 23:08:00,
2013-05-19 19:13:00,77.5,66.5,29.89,NE,51,0.0,3.0,69,0.00,,SCT060,0.00,VWS V13.01,2013-05-19 23:13:00,
2013-05-19 19:18:00,77.5,66.1,29.89,NE,51,0.0,3.0,68,0.00,,SCT060,0.00,VWS V13.01,2013-05-19 23:18:00,
2013-05-19 19:23:00,77.5,66.5,29.88,NE,51,2.0,3.0,69,0.00,,SCT060,0.00,VWS V13.01,2013-05-19 23:23:00,
2013-05-19 19:28:00,77.5,66.1,29.88,NE,51,0.0,3.0,68,0.00,,SCT060,0.00,VWS V13.01,2013-05-19 23:28:00,
2013-05-19 19:33:00,77.4,66.0,29.88,NE,51,0.0,1.0,68,0.00,,SCT060,0.00,VWS V13.01,2013-05-19 23:33:00,
2013-05-19 19:38:00,77.3,65.9,29.89,NE,51,0.0,1.0,68,0.00,,SCT060,0.00,VWS V13.01,2013-05-19 23:38:00,
2013-05-19 19:43:00,77.1,66.2,29.89,NE,51,0.0,1.0,69,0.00,,SCT060,0.00,VWS V13.01,2013-05-19 23:43:00,
2013-05-19 19:48:00,76.9,66.0,29.89,North,5,0.0,2.0,69,0.00,,SCT060,0.00,VWS V13.01,2013-05-19 23:48:00,
2013-05-19 19:53:00,76.7,65.8,29.89,East,101,1.0,2.0,69,0.00,,SCT060,0.00,VWS V13.01,2013-05-19 23:53:00,
2013-05-19 19:58:00,76.5,65.6,29.89,East,101,0.0,2.0,69,0.00,,SCT060,0.00,VWS V13.01,2013-05-19 23:58:00,
2013-05-19 20:03:00,76.3,65.4,29.89,East,101,0.0,0.0,69,0.00,,FEW046,0.00,VWS V13.01,2013-05-20 00:03:00,
2013-05-19 20:08:00,76.1,65.6,29.89,East,101,0.0,1.0,70,0.00,,FEW046,0.00,VWS V13.01,2013-05-20 00:08:00,
2013-05-19 20:13:00,75.8,65.3,29.89,East,101,0.0,1.0,70,0.00,,FEW046,0.00,VWS V13.01,2013-05-20 00:13:00,
2013-05-19 20:18:00,75.6,65.5,29.89,East,101,0.0,1.0,71,0.00,,FEW046,0.00,VWS V13.01,2013-05-20 00:18:00,
2013-05-19 20:23:00,75.2,65.6,29.89,East,101,0.0,1.0,72,0.00,,FEW046,0.00,VWS V13.01,2013-05-20 00:23:00,
2013-05-19 20:28:00,74.9,65.3,29.90,East,101,0.0,1.0,72,0.00,,FEW046,0.00,VWS V13.01,2013-05-20 00:28:00,
2013-05-19 20:33:00,74.6,65.0,29.90,East,101,0.0,1.0,72,0.00,,FEW046,0.00,VWS V13.01,2013-05-20 00:33:00,
2013-05-19 20:38:00,74.3,64.7,29.90,East,101,1.0,1.0,72,0.00,,FEW046,0.00,VWS V13.01,2013-05-20 00:38:00,
2013-05-19 20:43:00,74.1,64.9,29.90,ESE,103,0.0,3.0,73,0.00,,FEW046,0.00,VWS V13.01,2013-05-20 00:43:00,
2013-05-19 20:48:00,73.9,64.7,29.90,ESE,104,1.0,3.0,73,0.00,,FEW046,0.00,VWS V13.01,2013-05-20 00:48:00,
2013-05-19 20:53:00,73.7,64.9,29.90,ESE,111,0.0,3.0,74,0.00,,FEW046,0.00,VWS V13.01,2013-05-20 00:53:00,
2013-05-19 20:58:00,73.4,64.6,29.90,ESE,111,0.0,3.0,74,0.00,,FEW046,0.00,VWS V13.01,2013-05-20 00:58:00,
2013-05-19 21:03:00,73.1,64.3,29.90,ESE,111,0.0,0.0,74,0.00,,CLR,0.00,VWS V13.01,2013-05-20 01:03:00,
2013-05-19 21:08:00,72.8,64.4,29.90,South,169,1.0,3.0,75,0.00,,CLR,0.00,VWS V13.01,2013-05-20 01:08:00,
2013-05-19 21:13:00,72.6,64.2,29.90,East,96,1.0,3.0,75,0.00,,CLR,0.00,VWS V13.01,2013-05-20 01:13:00,
2013-05-19 21:18:00,72.4,64.0,29.90,ESE,107,0.0,3.0,75,0.00,,CLR,0.00,VWS V13.01,2013-05-20 01:18:00,
2013-05-19 21:23:00,72.2,63.8,29.90,ESE,114,0.0,3.0,75,0.00,,CLR,0.00,VWS V13.01,2013-05-20 01:23:00,
2013-05-19 21:28:00,72.0,64.0,29.91,ESE,117,2.0,3.0,76,0.00,,CLR,0.00,VWS V13.01,2013-05-20 01:28:00,
2013-05-19 21:33:00,71.9,63.9,29.91,ESE,117,1.0,2.0,76,0.00,,CLR,0.00,VWS V13.01,2013-05-20 01:33:00,
2013-05-19 21:38:00,71.6,64.0,29.91,ESE,117,0.0,2.0,77,0.00,,CLR,0.00,VWS V13.01,2013-05-20 01:38:00,
2013-05-19 21:43:00,71.4,63.8,29.92,ESE,117,1.0,3.0,77,0.00,,CLR,0.00,VWS V13.01,2013-05-20 01:43:00,
2013-05-19 21:48:00,71.2,64.0,29.92,ESE,118,0.0,3.0,78,0.00,,CLR,0.00,VWS V13.01,2013-05-20 01:48:00,
2013-05-19 21:53:00,71.1,63.9,29.92,ESE,121,4.0,4.0,78,0.00,,CLR,0.00,VWS V13.01,2013-05-20 01:53:00,
2013-05-19 21:58:00,71.1,63.5,29.93,ESE,123,0.0,4.0,77,0.00,,CLR,0.00,VWS V13.01,2013-05-20 01:58:00,
2013-05-19 22:03:00,71.0,63.4,29.92,ESE,123,1.0,2.0,77,0.00,,CLR,0.00,VWS V13.01,2013-05-20 02:03:00,
2013-05-19 22:08:00,70.9,63.3,29.92,SSE,162,3.0,4.0,77,0.00,,CLR,0.00,VWS V13.01,2013-05-20 02:08:00,
2013-05-19 22:13:00,70.8,63.6,29.92,SE,142,0.0,4.0,78,0.00,,CLR,0.00,VWS V13.01,2013-05-20 02:13:00,
2013-05-19 22:18:00,70.6,63.4,29.92,SE,143,0.0,4.0,78,0.00,,CLR,0.00,VWS V13.01,2013-05-20 02:18:00,
2013-05-19 22:23:00,70.5,63.3,29.92,SE,143,0.0,4.0,78,0.00,,CLR,0.00,VWS V13.01,2013-05-20 02:23:00,
2013-05-19 22:28:00,70.2,63.4,29.92,SSE,166,2.0,5.0,79,0.00,,CLR,0.00,VWS V13.01,2013-05-20 02:28:00,
2013-05-19 22:33:00,70.1,63.3,29.92,SSE,152,1.0,3.0,79,0.00,,CLR,0.00,VWS V13.01,2013-05-20 02:33:00,
2013-05-19 22:38:00,69.8,63.0,29.92,SSE,149,0.0,6.0,79,0.00,,CLR,0.00,VWS V13.01,2013-05-20 02:38:00,
2013-05-19 22:43:00,69.6,62.8,29.92,South,169,1.0,6.0,79,0.00,,CLR,0.00,VWS V13.01,2013-05-20 02:43:00,
2013-05-19 22:48:00,69.4,62.6,29.92,SE,144,4.0,6.0,79,0.00,,CLR,0.00,VWS V13.01,2013-05-20 02:48:00,
2013-05-19 22:53:00,69.2,62.8,29.92,ESE,110,1.0,10.0,80,0.00,,CLR,0.00,VWS V13.01,2013-05-20 02:53:00,
2013-05-19 22:58:00,69.0,62.6,29.92,South,181,1.0,10.0,80,0.00,,CLR,0.00,VWS V13.01,2013-05-20 02:58:00,
2013-05-19 23:03:00,68.7,62.3,29.92,SSE,161,5.0,6.0,80,0.00,,CLR,0.00,VWS V13.01,2013-05-20 03:03:00,
2013-05-19 23:08:00,68.5,62.1,29.92,SE,144,2.0,6.0,80,0.00,,CLR,0.00,VWS V13.01,2013-05-20 03:08:00,
2013-05-19 23:13:00,68.3,62.2,29.91,SSE,149,1.0,6.0,81,0.00,,CLR,0.00,VWS V13.01,2013-05-20 03:13:00,
2013-05-19 23:18:00,68.0,62.0,29.91,SSE,156,0.0,6.0,81,0.00,,CLR,0.00,VWS V13.01,2013-05-20 03:18:00,
2013-05-19 23:23:00,67.9,61.9,29.91,SE,135,3.0,9.0,81,0.00,,CLR,0.00,VWS V13.01,2013-05-20 03:23:00,
2013-05-19 23:28:00,67.7,62.0,29.91,SE,132,0.0,9.0,82,0.00,,CLR,0.00,VWS V13.01,2013-05-20 03:28:00,
2013-05-19 23:33:00,67.5,61.8,29.91,South,178,4.0,6.0,82,0.00,,CLR,0.00,VWS V13.01,2013-05-20 03:33:00,
2013-05-19 23:38:00,67.3,61.6,29.92,SSE,163,1.0,6.0,82,0.00,,CLR,0.00,VWS V13.01,2013-05-20 03:38:00,
2013-05-19 23:43:00,67.0,61.7,29.92,SE,136,1.0,6.0,83,0.00,,CLR,0.00,VWS V13.01,2013-05-20 03:43:00,
2013-05-19 23:48:00,66.9,61.6,29.92,SE,126,1.0,8.0,83,0.00,,CLR,0.00,VWS V13.01,2013-05-20 03:48:00,
2013-05-19 23:53:00,66.7,61.4,29.92,SE,136,3.0,8.0,83,0.00,,CLR,0.00,VWS V13.01,2013-05-20 03:53:00,
2013-05-19 23:58:00,66.5,61.2,29.92,SE,140,3.0,8.0,83,0.00,,CLR,0.00,VWS V13.01,2013-05-20 03:58:00,